Select Weather Forecast Office:  

NWS Baltimore, MD/Washington, DC/Sterling, VA Weather Forecast Office

NWS Regional Weather Roundup
County Warning Area [CWA]: LWX
Regional NWS Weather Office: Baltimore, MD/Washington, DC/Sterling, VA

621
ASUS41 KLWX 171411
RWRLWX

REGIONAL WEATHER ROUNDUP
NATIONAL WEATHER SERVICE BALTIMORE MD/WASHINGTON DC
900 AM EST WED JAN 17 2018

Note: "FAIR" indicates few or no clouds below 12,000 feet
with no significant weather and/or obstructions to visibility.
 TC=TEMPERATURE CELSIUS

 * =Non NWS site. Station does not report precipitation (e.g. rain,
    snow, etc.), thunder, or fog.

DCZ001-MDZ009-015-VAZ040>042-051-053>054-171500-
WASHINGTON METRO

CITY           SKY/WX    TMP DP  RH WIND       PRES   REMARKS
WASHINGTON NAT CLOUDY    25  16  68 NW16      30.41R WCI  12
DULLES         CLOUDY    22  12  65 N15       30.41R WCI   9
ANDREWS AFB    FAIR      24  15  67 N17       30.37R WCI  11
FT BELVOIR     PTSUNNY   24  11  55 NW15G23   30.40R WCI  12
QUANTICO       CLOUDY    27  18  69 N12       30.42R WCI  16
COLLEGE PARK*  PTSUNNY   24  14  64 NW7       30.40S WCI  16
LEESBURG*      CLOUDY    23  14  68 N14G20    30.42R WCI  11
MANASSAS*      CLOUDY    24  16  71 N14G20    30.42R WCI  12
GAITHERSBURG*  FAIR      22  14  71 NW9       30.39R WCI  12

$$

MDZ006>007-011-014-171500-
BALTIMORE METRO

CITY           SKY/WX    TMP DP  RH WIND       PRES   REMARKS
BWI AIRPORT    FLURRIES  24  18  77 NW12      30.37S WCI  13
MD SCIENCE CTR   N/A     26  15  63 MISG      30.45R
MARTIN STATE   CLOUDY    28  27  93 NW12G17   30.39R WCI  18
ANNAPOLIS      LGT SNOW  28  23  81 NW12      30.37R WCI  18
FORT MEADE*    FAIR      27  18  69 NW7       30.41S WCI  19

$$

MDZ012-015-019>023-171500-
MARYLAND EASTERN SHORE

CITY           SKY/WX    TMP DP  RH WIND       PRES   REMARKS
OCEAN CITY     CLOUDY    35  32  88 NW13      30.29S FOG     WCI  26
SALISBURY      CLOUDY    34  31  88 NW13      30.31R FOG     WCI  25
BAY BRIDGE AP* LGT SNOW  27  25  93 MISG      30.38R FOG
CAMBRIDGE*     PTSUNNY   30  28  93 NW15G22   30.35R FOG     WCI  19
EASTON*        LGT SNOW  30  28  93 NW17G24   30.39R WCI  18

$$

MDZ017>025-171500-
SOUTHERN MARYLAND

CITY           SKY/WX    TMP DP  RH WIND       PRES   REMARKS
PATUXENT RIVER NOT AVBL
ST INIGOES     CLOUDY    29  23  78 NW10G17   30.36R HAZE    WCI  20
LEONARDTOWN*   CLOUDY    28  23  80 NW12G18   30.38R WCI  18

$$

MDZ003>005-171500-
NORTH CENTRAL MARYLAND

CITY           SKY/WX    TMP DP  RH WIND       PRES   REMARKS
FREDERICK*     CLOUDY    23   7  50 N10       30.45R WCI  12
HAGERSTOWN APT FAIR      18   9  68 NW12      30.41R WCI   5
WESTMINSTER*   PTSUNNY   21  12  68 NW10G17   30.36R WCI  10

$$

MDZ501>502-171500-
WESTERN MARYLAND

CITY           SKY/WX    TMP DP  RH WIND       PRES   REMARKS
OAKLAND*       CLOUDY     1   0  92 W6        30.24S WCI -10
CUMBERLAND*    FAIR      18   5  57 N7          N/A  WCI   8

$$

VAZ025>031-171500-
SHENANDOAH VALLEY

CITY           SKY/WX    TMP DP  RH WIND       PRES   REMARKS
WINCHESTER*    PTSUNNY   18   9  68 NW10G16   30.43R WCI   6
FRONT ROYAL*   CLOUDY    21  10  63 NE6       30.39S WCI  14
LURAY*         CLOUDY    27  12  54 N9        30.38S WCI  17
NEW MARKET*    NOT AVBL
STAUNTON*      FLURRIES  22  16  78 NE9       30.36S WCI  12
WAYNESBORO*    CLOUDY    21  19  90 N12G20    30.32R WCI   9

$$

WVZ021-048>050-054>055-171500-
EASTERN WEST VIRGINIA PANHANDLE

CITY           SKY/WX    TMP DP  RH WIND       PRES   REMARKS
MARTINSBURG    FAIR      19   7  59 NW13      30.42R WCI   6
PETERSBURG*    FAIR      17   4  57 N3        30.42R

$$

VAZ036>039-050-171500-
CENTRAL FOOTHILLS

CITY           SKY/WX    TMP DP  RH WIND       PRES   REMARKS
CHARLOTTESVILL LGT SNOW  29  25  85 N6        30.34R FOG     WCI  23
CULPEPER*      CLOUDY    26  10  52 N13       30.40R WCI  15
ORANGE*        LGT SNOW  25  21  86 CALM      30.37R
GORDONSVILLE*  CLOUDY    25  23  91 NE8       30.36R FOG     WCI  16
WARRENTON*     CLOUDY    26   9  49 N15       30.40R WCI  13

$$

VAZ055>057-171500-
NORTH AND CENTRAL PIEDMONT

CITY           SKY/WX    TMP DP  RH WIND       PRES   REMARKS
FREDERICKSBRG* LGT SNOW  27  23  84 N8        30.39R WCI  19
STAFFORD*      CLOUDY    26  19  73 N8        30.43R WCI  18

$$

NCZ024-NYZ072-PAZ021-071-VAZ022-071-171500-
OTHER REGIONAL OBSERVATIONS

CITY           SKY/WX    TMP DP  RH WIND       PRES   REMARKS
NEW YORK CITY  CLOUDY    33  32  96 CALM      30.28S FOG
PHILADELPHIA   LGT SNOW  31  27  85 NW13      30.33R FOG     WCI  21
PITTSBURGH     LGT SNOW   5   2  87 SW5       30.46R FOG     WCI  -4
ROANOKE        LGT SNOW  22  18  85 N9        30.34S VSB 3/4 WCI  12
RICHMOND       LGT SNOW  31  29  92 N13       30.34R VSB 3/4 WCI  21
RALEIGH        LGT SNOW  33  31  92 N5        30.28R FOG     WCI  29

$$

ANZ530>537-171500-
MARINE OBSERVATIONS

STATION/POSITION TIME  TEMP    WIND        PRES
                       AIR SEA DIR/SP/G
                 (UTC) (F)     (DEG/KT/KT) (MB)
THOMAS PT LIGHT  1400   26 32  320/ 16/ 20   N/A
BALT KEY BRIDGE  1336   27     300/ 14/ 16 1028.7R
COVE POINT       1336   28     340/ 20/ 23 1028.5R
LEWISETTA        1342   29 33  350/ 14/ 18 1027.9R
SOLOMONS ISLAND  1336   28 34  320/ 13/ 18 1027.6R
PINEY POINT      1342          350/ 21/ 24   N/A

$$

Hourly Weather Roundup from: NOAA-NWS
Script developed by: El Dorado Weather & modified by: SE Lincoln Weather